| time (UTC) | temp F | wind direction | speed MPH | gust MPH | rain 1hr in | rain 24hr in | rain mn in | humidity % | barometer mb |
| 20260503200043 | 72 | 347 | 7.0 | 19.0 | 0.00 | 0.00 | 0.00 | 18 | 1006.8 |
| 20260503194534 | 72 | 300 | 11.0 | 17.0 | 0.00 | 0.00 | 0.00 | 20 | 1007.0 |
| 20260503193034 | 71 | 311 | 7.0 | 17.0 | 0.00 | 0.00 | 0.00 | 19 | 1007.2 |
| 20260503191530 | 73 | 313 | 7.0 | 14.0 | 0.00 | 0.00 | 0.00 | 21 | 1007.3 |
| 20260503190035 | 73 | 338 | 7.0 | 19.0 | 0.00 | 0.00 | 0.00 | 20 | 1007.5 |
| 20260503184528 | 72 | 329 | 8.0 | 18.0 | 0.00 | 0.00 | 0.00 | 22 | 1007.6 |
| 20260503183025 | 71 | 292 | 7.0 | 16.0 | 0.00 | 0.00 | 0.00 | 21 | 1007.9 |
| 20260503181521 | 72 | 317 | 6.0 | 17.0 | 0.00 | 0.00 | 0.00 | 21 | 1008.1 |
| 20260503180019 | 71 | 299 | 7.0 | 13.0 | 0.00 | 0.00 | 0.00 | 22 | 1008.4 |
| 20260503174517 | 71 | 307 | 6.0 | 14.0 | 0.00 | 0.00 | 0.00 | 24 | 1008.5 |
| 20260503173015 | 70 | 294 | 8.0 | 12.0 | 0.00 | 0.00 | 0.00 | 24 | 1008.7 |
| 20260503171511 | 69 | 18 | 3.0 | 13.0 | 0.00 | 0.00 | 0.00 | 25 | 1008.7 |
| 20260503081551 | 43 | 284 | 3.0 | 7.0 | 0.00 | 0.00 | 0.00 | 69 | 1012.1 |
| 20260503071540 | 44 | 284 | 1.0 | 4.0 | 0.00 | 0.00 | 0.00 | 64 | 1012.4 |
| 20260503054533 | 49 | 281 | 2.0 | 6.0 | 0.00 | 0.00 | 0.00 | 56 | 1012.7 |
| 20260503053021 | 51 | 157 | 1.0 | 2.0 | 0.00 | 0.00 | 0.00 | 52 | 1012.6 |
| 20260503051521 | 53 | 157 | 0.0 | 2.0 | 0.00 | 0.00 | 0.00 | 50 | 1012.6 |
| 20260503050020 | 54 | 121 | 0.0 | 0.0 | 0.00 | 0.00 | 0.00 | 49 | 1012.5 |
| 20260503044535 | 55 | 115 | 0.0 | 0.0 | 0.00 | 0.00 | 0.00 | 48 | 1012.6 |
| 20260503043020 | 56 | 115 | 0.0 | 0.0 | 0.00 | 0.00 | 0.00 | 47 | 1012.7 |
| 20260503041519 | 56 | 115 | 0.0 | 2.0 | 0.00 | 0.00 | 0.00 | 47 | 1012.7 |
| 20260503040018 | 57 | 115 | 0.0 | 2.0 | 0.00 | 0.00 | 0.00 | 45 | 1012.7 |
| 20260503034521 | 57 | 115 | 1.0 | 4.0 | 0.00 | 0.00 | 0.00 | 45 | 1012.7 |
| 20260503033018 | 57 | 138 | 0.0 | 2.0 | 0.00 | 0.00 | 0.00 | 46 | 1012.6 |
| 20260503031517 | 58 | 138 | 0.0 | 3.0 | 0.00 | 0.00 | 0.00 | 44 | 1012.6 |
| 20260503030018 | 59 | 94 | 2.0 | 4.0 | 0.00 | 0.00 | 0.00 | 43 | 1012.4 |
| 20260503024517 | 60 | 76 | 1.0 | 3.0 | 0.00 | 0.00 | 0.00 | 42 | 1012.2 |
| 20260503023016 | 60 | 81 | 2.0 | 4.0 | 0.00 | 0.00 | 0.00 | 41 | 1012.2 |
| 20260503021515 | 62 | 81 | 2.0 | 4.0 | 0.00 | 0.00 | 0.00 | 39 | 1012.2 |
| 20260503020015 | 63 | 68 | 2.0 | 3.0 | 0.00 | 0.00 | 0.00 | 38 | 1012.2 |
| 20260503014517 | 63 | 61 | 2.0 | 6.0 | 0.00 | 0.00 | 0.00 | 37 | 1012.1 |
| 20260503013024 | 63 | 69 | 3.0 | 6.0 | 0.00 | 0.00 | 0.00 | 36 | 1012.2 |
| 20260503011514 | 64 | 46 | 3.0 | 7.0 | 0.00 | 0.00 | 0.00 | 36 | 1012.2 |
| 20260503010013 | 64 | 5 | 2.0 | 6.0 | 0.00 | 0.00 | 0.00 | 35 | 1012.3 |
| 20260503004514 | 65 | 82 | 5.0 | 8.0 | 0.00 | 0.00 | 0.00 | 35 | 1012.4 |
| 20260503003013 | 65 | 294 | 0.0 | 4.0 | 0.00 | 0.00 | 0.00 | 34 | 1012.5 |
| 20260503001512 | 66 | 339 | 4.0 | 7.0 | 0.00 | 0.00 | 0.00 | 33 | 1012.5 |
| 20260503000011 | 65 | 53 | 3.0 | 9.0 | 0.00 | 0.00 | 0.00 | 34 | 1012.5 |
| 20260502234511 | 65 | 346 | 2.0 | 5.0 | 0.00 | 0.00 | 0.00 | 34 | 1012.6 |
| 20260502233011 | 65 | 49 | 3.0 | 9.0 | 0.00 | 0.00 | 0.00 | 34 | 1012.9 |
| 20260502231517 | 65 | 36 | 2.0 | 10.0 | 0.00 | 0.00 | 0.00 | 34 | 1013.1 |
| 20260502230010 | 65 | 348 | 3.0 | 9.0 | 0.00 | 0.00 | 0.00 | 34 | 1013.2 |
| 20260502224511 | 66 | 323 | 1.0 | 8.0 | 0.00 | 0.00 | 0.00 | 33 | 1013.4 |
| 20260502223010 | 66 | 5 | 4.0 | 9.0 | 0.00 | 0.00 | 0.00 | 33 | 1013.5 |
| 20260502221508 | 65 | 304 | 3.0 | 10.0 | 0.00 | 0.00 | 0.00 | 34 | 1013.8 |
| 20260502220009 | 66 | 336 | 6.0 | 9.0 | 0.00 | 0.00 | 0.00 | 34 | 1013.9 |
| 20260502214506 | 66 | 273 | 3.0 | 8.0 | 0.00 | 0.00 | 0.00 | 34 | 1014.1 |
| 20260502213004 | 65 | 279 | 6.0 | 11.0 | 0.00 | 0.00 | 0.00 | 35 | 1014.3 |
| 20260502211502 | 65 | 78 | 2.0 | 13.0 | 0.00 | 0.00 | 0.00 | 35 | 1014.3 |
| 20260502210001 | 65 | 11 | 5.0 | 10.0 | 0.00 | 0.00 | 0.00 | 36 | 1014.5 |
| 20260502204600 | 64 | 317 | 4.0 | 8.0 | 0.00 | 0.00 | 0.00 | 36 | 1014.7 |
| 20260502203059 | 64 | 355 | 7.0 | 12.0 | 0.00 | 0.00 | 0.00 | 36 | 1014.8 |
| 20260502201605 | 64 | 302 | 7.0 | 16.0 | 0.00 | 0.00 | 0.00 | 37 | 1015.0 |